Flag for U.S.A. Weather past 2 weeks in Kalamazoo, Michigan, U.S.A.

Now
3 °F

Clear.


Feels Like: 3 °F
Forecast: 5 / 18 °F
Wind: No wind

Location: Kalamazoo / Battle Creek International Airport

Current Time: Mar 5, 2015 at 5:45:39 AM

Latest Report: Mar 5, 2015 at 4:53 AM


Visibility: 10 mi

Pressure: 30.36 "Hg

Humidity: 69%

Dew point: -5 °F

Location of KalamazooLocation

Historic Weather in Kalamazoo — Graph

°F

Kalamazoo temperature yesterday

Maximum temperature yesterday: 30 °F (at 3:53 AM)
Minimum temperature yesterday: 14 °F (at 11:53 PM)
Average temperature yesterday: 23 °F

Past Weeks' High & Low Weather Summary

 TemperatureHumidityPressure
High35 °F (Mar 3, 4:53 PM)89% (Mar 3, 7:53 AM)30.79 "Hg (Mar 3, 7:53 AM)
Low-14 °F (Feb 20, 1:01 AM)45% (Feb 24, 9:53 AM)29.60 "Hg (Mar 3, 3:00 PM)
Average14 °F68%30.24 "Hg
* Reported Feb 18 4:53 AM — Mar 5 4:53 AM, Kalamazoo, Weather by CustomWeather, © 2015

Note: Actual official high and low records may vary slightly from our data, if they occured in-between our weather recording intervals... More about our weather records

Advertising

Kalamazoo weather history for previous 24 hours

 ConditionsComfort  
Time TempWeatherWind HumidityBarometerVisibility
4:53 AM
Thu, Mar 5
3 °FClear.No wind69%30.36 "Hg10 mi
3:53 AM9 °FClear.3 mph61%30.36 "Hg10 mi
2:53 AM9 °FClear.3 mph61%30.34 "Hg10 mi
1:53 AM9 °FClear.5 mph64%30.34 "Hg10 mi
12:53 AM13 °FClear.10 mph56%30.33 "Hg10 mi
11:53 PM
Wed, Mar 4
14 °FClear.14 mph56%30.31 "Hg10 mi
10:53 PM16 °FClear.14 mph51%30.29 "Hg10 mi
9:53 PM16 °FClear.10 mph53%30.28 "Hg10 mi
8:53 PM17 °FClear.9 mph54%30.22 "Hg10 mi
7:53 PM18 °FClear.12 mph52%30.22 "Hg10 mi
6:53 PM18 °FPassing clouds.12 mph52%30.18 "Hg10 mi
5:53 PM19 °FOvercast.15 mph57%30.14 "Hg10 mi
4:53 PM20 °FScattered clouds.17 mph55%30.14 "Hg10 mi
3:53 PM21 °FScattered clouds.15 mph57%30.12 "Hg10 mi
2:53 PM23 °FPassing clouds.20 mph55%30.05 "Hg10 mi
1:53 PM25 °FScattered clouds.17 mph60%30.04 "Hg10 mi
12:53 PM25 °FPartly sunny.17 mph66%30.04 "Hg10 mi
11:53 AM27 °FPartly sunny.14 mph61%30.00 "Hg10 mi
10:53 AM26 °FOvercast.13 mph66%30.02 "Hg10 mi
9:53 AM27 °FOvercast.14 mph69%30.01 "Hg10 mi
8:53 AM27 °FOvercast.15 mph69%29.99 "Hg10 mi
7:53 AM29 °FMore clouds than sun.15 mph69%29.97 "Hg10 mi
7:00 AM30 °FOvercast.8 mph69%29.92 "Hg9 mi
5:53 AM30 °FOvercast.7 mph75%29.92 "Hg8 mi
Weather by CustomWeather, © 2015

See weather overviewHow to use our weather pages